Location: Newark
(35.5300°N, 14.3000°E)
Time: 00:33:58
(UTC+00:00)

deb Explorer IX - All Passes

Search period start: 17 November 2019 00:00
Search period end: 27 November 2019 00:00
Orbit: 546 x 1105 km, 38.8° (Epoch: 14 November)

Date Brightness Start Highest point End Pass type
(mag) Time Alt. Az. Time Alt. Az. Time Alt. Az.
17 Nov - 01:11:35 10° WSW 01:17:50 87° SSE 01:23:07 10° ENE night (unlit)
17 Nov - 02:59:37 10° W 03:05:10 60° N 03:09:52 10° ENE visible
17 Nov - 04:47:23 10° WNW 04:52:24 83° NNE 04:56:45 10° ESE visible
17 Nov - 06:35:06 10° W 06:38:56 28° SSW 06:42:31 10° SSE daylight
17 Nov - 23:02:45 10° SSW 23:08:47 35° SSE 23:14:09 10° E night (unlit)
18 Nov - 00:49:26 10° WSW 00:55:52 88° SSE 01:01:18 10° ENE night (unlit)
18 Nov - 02:37:31 10° W 02:43:14 60° N 02:48:05 10° ENE visible
18 Nov - 04:25:20 10° WNW 04:30:31 85° NNE 04:34:58 10° ESE visible
18 Nov - 06:13:07 10° W 06:17:03 28° SW 06:20:41 10° SSE daylight
18 Nov - 22:40:31 10° SSW 22:46:44 36° SSE 22:52:18 10° E night (unlit)
19 Nov - 00:27:16 10° WSW 00:33:52 89° SSE 00:39:29 10° ENE night (unlit)
19 Nov - 02:15:24 10° W 02:21:18 61° N 02:26:18 10° E visible
19 Nov - 04:03:16 10° WNW 04:08:38 86° NNE 04:13:12 10° ESE visible
19 Nov - 05:51:08 10° W 05:55:10 28° SW 05:58:50 10° SSE daylight
19 Nov - 22:18:18 10° SSW 22:24:41 37° SSE 22:30:26 10° E night (unlit)
20 Nov - 00:05:06 10° WSW 00:11:51 90° SSE 00:17:38 10° ENE night (unlit)
20 Nov - 01:53:15 10° W 01:59:21 62° N 02:04:30 10° E visible
20 Nov - 03:41:10 10° WNW 03:46:43 87° NNE 03:51:24 10° ESE visible
20 Nov - 05:29:07 10° W 05:33:16 28° SW 05:37:00 10° SSE daylight
20 Nov - 20:14:52 10° SE 20:15:57 10° SE 20:17:02 10° SE night (unlit)
20 Nov - 21:56:06 10° SW 22:02:37 39° SSE 22:08:32 10° E night (unlit)
20 Nov - 23:42:56 10° WSW 23:49:49 89° NNW 23:55:46 10° ENE night (unlit)
21 Nov - 01:31:06 10° W 01:37:22 63° N 01:42:41 10° E visible
21 Nov - 03:19:03 10° WNW 03:24:47 89° NNE 03:29:37 10° ESE visible
21 Nov - 05:07:04 10° W 05:11:22 28° SW 05:15:11 10° SSE visible
21 Nov - 19:52:06 10° SSE 19:53:52 11° SE 19:55:36 10° ESE night (unlit)
21 Nov - 21:33:54 10° SW 21:40:31 40° SSE 21:46:37 10° E night (unlit)
21 Nov - 23:20:45 10° WSW 23:27:46 89° NNW 23:33:53 10° ENE night (unlit)
22 Nov - 01:08:56 10° W 01:15:23 63° N 01:20:52 10° E night (unlit)
22 Nov - 02:56:56 10° WNW 03:02:50 90° NNW 03:07:48 10° ESE visible
22 Nov - 04:45:00 10° W 04:49:26 28° SW 04:53:22 10° SSE visible
22 Nov - 19:29:35 10° SSE 19:31:47 11° SE 19:33:56 10° ESE night (unlit)
22 Nov - 21:11:42 10° SW 21:18:25 41° SSE 21:24:41 10° E night (unlit)
22 Nov - 22:58:35 10° WSW 23:05:43 88° NNW 23:11:59 10° ENE night (unlit)
23 Nov - 00:46:46 10° W 00:53:23 64° N 00:59:01 10° E night (unlit)
23 Nov - 02:34:47 10° WNW 02:40:52 89° SSW 02:45:59 10° ESE visible
23 Nov - 04:22:54 10° W 04:27:29 28° SW 04:31:32 10° SSE visible
23 Nov - 19:07:10 10° SSE 19:09:40 12° SE 19:12:09 10° ESE visible
23 Nov - 20:49:30 10° SW 20:56:18 42° SSE 21:02:43 10° E night (unlit)
23 Nov - 22:36:24 10° WSW 22:43:37 87° NNW 22:50:04 10° ENE night (unlit)
24 Nov - 00:24:35 10° W 00:31:21 65° N 00:37:09 10° E night (unlit)
24 Nov - 02:12:37 10° WNW 02:18:54 88° SSW 02:24:10 10° ESE visible
24 Nov - 04:00:47 10° W 04:05:32 28° SW 04:09:42 10° SSE visible
24 Nov - 18:44:49 10° SSE 18:47:34 12° SE 18:50:17 10° ESE visible
24 Nov - 20:27:20 10° SW 20:34:11 43° SSE 20:40:43 10° E night (unlit)
24 Nov - 22:14:14 10° WSW 22:21:32 86° NNW 22:28:07 10° ENE night (unlit)
25 Nov - 00:02:24 10° W 00:09:18 65° N 00:15:17 10° E night (unlit)
25 Nov - 01:50:27 10° WNW 01:56:54 87° SSW 02:02:20 10° ESE visible
25 Nov - 03:38:40 10° W 03:43:33 29° SW 03:47:52 10° SSE visible
25 Nov - 18:22:32 10° SSE 18:25:27 13° SE 18:28:22 10° ESE visible
25 Nov - 20:05:10 10° SW 20:12:03 44° SSE 20:18:42 10° E visible
25 Nov - 21:52:05 10° WSW 21:59:25 86° NNW 22:06:10 10° ENE night (unlit)
25 Nov - 23:40:14 10° W 23:47:14 66° N 23:53:24 10° E night (unlit)
26 Nov - 01:28:16 10° WNW 01:34:53 86° SSW 01:40:29 10° ESE visible
26 Nov - 03:16:31 10° W 03:21:34 29° SW 03:26:00 10° SSE visible
26 Nov - 18:00:18 10° SSE 18:03:20 13° SE 18:06:24 10° ESE visible
26 Nov - 19:43:02 10° SW 19:49:54 45° SSE 19:56:40 10° ENE visible
26 Nov - 21:29:55 10° WSW 21:37:18 85° NNW 21:44:10 10° ENE night (unlit)
26 Nov - 23:18:03 10° W 23:25:10 67° N 23:31:29 10° E night (unlit)
